Voltar ao catálogo

CZ-4C DEB

AtivoPO
NORAD 43601·DEBRIS·🇨🇳 China

Lançado Aug 9, 2016 de Taiyuan Satellite Launch Center

Loading…

Próximas Passagens (próximas 24 horas)

TLE

AtualizadoSource: Space-Track

Época: Sep 13, 2026, 08:48 UTC

1 43601U 16049F   26256.36704336  .00011730  00000-0  82060-3 0  9998
2 43601  98.3444  46.2069 0061572 256.1439 103.2930 15.03911264645898

Acompanhe CZ-4C DEB em tempo real com AllMySat

Download on the App Store